This demonstration page uses our WeatherBlox Daily Observations layout. Learn more.

Left ArrowRight Arrow

31.84235, -102.49876

Hourly Observations for May 12, 2021

Temp ( °F °C ) Dew Point ( °F °C ) Humidity (%) Winds ( mph kmh ) Pressure ( in mb ) Visibility ( mi km ) Precip ( " mm )
12:33 am 00:33 Cloudy 54 12.2 49 9.4 83 83 ENE 15 24 30.16 1021 9 14 0.00 0.00
12:53 am 00:53 Cloudy 54 12.2 48 8.9 80 80 ENE 17 28 30.13 1020 10 16 0.00 0.00
1:53 am 01:53 Cloudy 53 11.7 48 8.9 83 83 NE 16 26 30.15 1021 10 16 0.00 0.00
2:53 am 02:53 Cloudy 53 11.7 48 8.9 83 83 NE 20 31 30.15 1021 10 16 0.00 0.00
3:04 am 03:04 Cloudy 53 11.7 47 8.3 80 80 ENE 21 33 30.20 1023 10 16 0.00 0.00
3:11 am 03:11 Cloudy 52 11.1 47 8.3 83 83 ENE 20 31 30.22 1023 10 16 0.00 0.00
3:53 am 03:53 Cloudy 52 11.1 47 8.3 83 83 NE 22 35 30.16 1021 10 16 0.00 0.00
4:38 am 04:38 Cloudy 51 10.6 45 7.2 80 80 NE 21 33 30.24 1024 10 16 0.00 0.00
4:53 am 04:53 Cloudy 51 10.6 45 7.2 80 80 ENE 21 33 30.19 1022 10 16 0.00 0.00
5:29 am 05:29 Cloudy 51 10.6 44 6.7 77 77 NE 18 30 30.26 1025 10 16 0.00 0.00
5:53 am 05:53 Cloudy 50 10 44 6.7 80 80 ENE 16 26 30.21 1023 10 16 0.00 0.00
6:53 am 06:53 Cloudy 50 10 43 6.1 77 77 ENE 21 33 30.22 1023 10 16 0.00 0.00
7:36 am 07:36 Cloudy 50 10 44 6.7 80 80 NE 20 31 30.29 1026 10 16 0.00 0.00
7:53 am 07:53 Cloudy 50 10 43 6.1 77 77 ENE 21 33 30.23 1024 10 16 0.00 0.00
8:01 am 08:01 Cloudy 50 10 43 6.1 77 77 NE 17 28 30.29 1026 10 16 0.00 0.00
8:53 am 08:53 Cloudy 51 10.6 43 6.1 74 74 NE 20 31 30.24 1024 10 16 0.00 0.00
9:53 am 09:53 Cloudy 54 12.2 42 5.6 64 64 NE 17 28 30.24 1024 10 16 0.00 0.00
10:53 am 10:53 Cloudy 56 13.3 43 6.1 62 62 NE 17 28 30.26 1025 10 16 0.00 0.00
11:53 am 11:53 Cloudy 59 15 43 6.1 56 56 E 14 22 30.27 1025 10 16 0.00 0.00
12:53 pm 12:53 Mostly Cloudy 62 16.7 43 6.1 50 50 E 12 19 30.26 1025 10 16 0.00 0.00
1:53 pm 13:53 Mostly Sunny 64 17.8 43 6.1 46 46 ENE 13 20 30.24 1024 10 16 0.00 0.00
2:53 pm 14:53 Mostly Sunny 66 18.9 43 6.1 43 43 VRB 3 6 30.22 1023 10 16 0.00 0.00
3:53 pm 15:53 Sunny 68 20 43 6.1 40 40 E 12 19 30.19 1022 10 16 0.00 0.00
4:53 pm 16:53 Mostly Sunny 71 21.7 44 6.7 38 38 VRB 7 11 30.16 1021 10 16 0.00 0.00
5:53 pm 17:53 Mostly Sunny 70 21.1 44 6.7 39 39 E 6 9 30.15 1021 10 16 0.00 0.00
6:53 pm 18:53 Partly Cloudy 70 21.1 44 6.7 39 39 VRB 6 9 30.15 1021 10 16 0.00 0.00
7:53 pm 19:53 Mostly Cloudy 68 20 45 7.2 44 44 E 12 19 30.16 1021 10 16 0.00 0.00
8:53 pm 20:53 Cloudy 66 18.9 46 7.8 49 49 SE 14 22 30.18 1022 10 16 0.00 0.00
9:53 pm 21:53 Partly Cloudy 63 17.2 47 8.3 56 56 ESE 13 20 30.21 1023 10 16 0.00 0.00
10:53 pm 22:53 Mostly Clear 61 16.1 47 8.3 60 60 E 10 17 30.22 1023 10 16 0.00 0.00
11:53 pm 23:53 Partly Cloudy 59 15 47 8.3 64 64 ESE 15 24 30.23 1024 10 16 0.00 0.00

Powered by AerisWeather